�������l�o���
Date,Time,MP-1(��Sv/h),MP-2(��Sv/h),MP-3(��Sv/h),MP-4(��Sv/h),MP-5(��Sv/h),MP-6(��Sv/h),MP-7(��Sv/h),MP-8(��Sv/h),����,����(m/s),���J
2019/08/04,00:00,0.759,1.087,0.742,1.307,0.964,0.433,0.746,0.704,���k��,1.2,��
2019/08/04,00:10,0.759,1.088,0.742,1.309,0.964,0.431,0.747,0.704,���k��,1.2,��
2019/08/04,00:20,0.760,1.085,0.743,1.308,0.964,0.431,0.748,0.705,���k��,1.5,��
2019/08/04,00:30,0.759,1.088,0.742,1.308,0.963,0.431,0.746,0.704,�k��,2.0,��
2019/08/04,00:40,0.763,1.088,0.741,1.310,0.965,0.432,0.746,0.705,�k�k��,3.2,��
2019/08/04,00:50,0.759,1.089,0.743,1.309,0.967,0.432,0.746,0.704,�k�k��,2.9,��
2019/08/04,01:00,0.759,1.088,0.741,1.307,0.966,0.432,0.745,0.705,�k�k��,2.6,��
2019/08/04,01:10,0.757,1.087,0.743,1.307,0.966,0.432,0.745,0.707,�k�k��,2.6,��
2019/08/04,01:20,0.758,1.086,0.740,1.308,0.965,0.431,0.747,0.703,�k,2.9,��
2019/08/04,01:30,0.761,1.085,0.741,1.309,0.964,0.433,0.745,0.704,�k,3.5,��
2019/08/04,01:40,0.759,1.087,0.741,1.307,0.963,0.432,0.745,0.703,�k,3.3,��
2019/08/04,01:50,0.759,1.085,0.742,1.309,0.966,0.432,0.745,0.704,�k�k��,3.4,��
2019/08/04,02:00,0.758,1.086,0.743,1.309,0.961,0.433,0.745,0.704,�k,2.9,��
2019/08/04,02:10,0.758,1.085,0.741,1.307,0.964,0.433,0.745,0.705,�k,3.3,��
2019/08/04,02:20,0.759,1.088,0.742,1.308,0.963,0.430,0.746,0.706,�k,2.6,��
2019/08/04,02:30,0.757,1.088,0.741,1.308,0.961,0.429,0.744,0.703,�k,3.3,��
2019/08/04,02:40,0.757,1.087,0.740,1.307,0.965,0.430,0.746,0.702,�k,2.9,��
2019/08/04,02:50,0.758,1.085,0.741,1.308,0.963,0.430,0.743,0.702,�k,4.1,��
2019/08/04,03:00,0.758,1.084,0.741,1.308,0.962,0.429,0.743,0.705,�k,4.5,��
2019/08/04,03:10,0.757,1.088,0.742,1.309,0.966,0.429,0.744,0.703,�k,4.4,��
2019/08/04,03:20,0.757,1.084,0.741,1.307,0.962,0.431,0.745,0.704,�k,4.0,��
2019/08/04,03:30,0.760,1.082,0.740,1.306,0.963,0.431,0.744,0.705,�k�k��,4.1,��
2019/08/04,03:40,0.757,1.087,0.740,1.311,0.963,0.430,0.745,0.705,�k�k��,3.8,��
2019/08/04,03:50,0.758,1.085,0.743,1.306,0.962,0.430,0.745,0.705,�k�k��,3.2,��
2019/08/04,04:00,0.757,1.085,0.740,1.307,0.962,0.429,0.744,0.704,�k�k��,4.1,��
2019/08/04,04:10,0.757,1.085,0.742,1.305,0.964,0.429,0.744,0.704,�k�k��,4.0,��
2019/08/04,04:20,0.757,1.084,0.740,1.309,0.964,0.429,0.741,0.703,�k�k��,4.0,��
2019/08/04,04:30,0.756,1.085,0.743,1.307,0.961,0.430,0.744,0.705,�k�k��,3.7,��
2019/08/04,04:40,0.757,1.085,0.740,1.308,0.963,0.431,0.746,0.705,�k�k��,2.0,��
2019/08/04,04:50,0.758,1.084,0.740,1.305,0.965,0.430,0.745,0.703,�k�k��,3.3,��
2019/08/04,05:00,0.759,1.088,0.739,1.308,0.960,0.431,0.746,0.703,�k�k��,2.8,��
2019/08/04,05:10,0.757,1.085,0.739,1.309,0.962,0.429,0.744,0.704,�k�k��,2.5,��
2019/08/04,05:20,0.759,1.083,0.740,1.308,0.963,0.430,0.745,0.706,�k�k��,2.5,��
2019/08/04,05:30,0.757,1.086,0.740,1.309,0.962,0.429,0.744,0.705,�k�k��,2.5,��
2019/08/04,05:40,0.757,1.087,0.741,1.309,0.962,0.430,0.744,0.704,�k�k��,3.6,��
2019/08/04,05:50,0.757,1.087,0.741,1.307,0.962,0.430,0.744,0.704,�k�k��,3.6,��
2019/08/04,06:00,0.755,1.085,0.741,1.307,0.964,0.430,0.746,0.704,�k�k��,2.6,��
2019/08/04,06:10,0.757,1.086,0.740,1.307,0.964,0.429,0.746,0.705,�k,2.3,��
2019/08/04,06:20,0.755,1.087,0.739,1.307,0.963,0.428,0.745,0.704,�k,2.3,��
2019/08/04,06:30,0.756,1.084,0.741,1.306,0.962,0.429,0.745,0.705,�k�k��,2.0,��
2019/08/04,06:40,0.754,1.083,0.738,1.308,0.962,0.429,0.743,0.704,�k,3.0,��
2019/08/04,06:50,0.755,1.085,0.739,1.305,0.962,0.429,0.744,0.705,�k,3.1,��
2019/08/04,07:00,0.753,1.087,0.739,1.307,0.962,0.428,0.746,0.705,�k,3.4,��
2019/08/04,07:10,0.755,1.083,0.740,1.307,0.963,0.427,0.745,0.704,�k,3.5,��
2019/08/04,07:20,0.755,1.086,0.739,1.309,0.962,0.427,0.745,0.706,�k,3.3,��
2019/08/04,07:30,0.756,1.084,0.739,1.307,0.962,0.427,0.743,0.704,�k,3.2,��
2019/08/04,07:40,0.755,1.084,0.740,1.306,0.962,0.428,0.742,0.703,�k,4.5,��
2019/08/04,07:50,0.753,1.083,0.741,1.305,0.963,0.427,0.744,0.702,�k,5.4,��
2019/08/04,08:00,0.754,1.084,0.742,1.306,0.961,0.427,0.744,0.704,�k,5.3,��
2019/08/04,08:10,0.754,1.081,0.740,1.306,0.962,0.427,0.745,0.704,�k,4.0,��
2019/08/04,08:20,0.754,1.083,0.740,1.307,0.963,0.428,0.745,0.703,�k�k��,5.0,��
2019/08/04,08:30,0.754,1.086,0.740,1.307,0.962,0.427,0.745,0.704,�k�k��,4.8,��
2019/08/04,08:40,0.754,1.084,0.738,1.310,0.962,0.427,0.745,0.705,�k,5.4,��
2019/08/04,08:50,0.755,1.085,0.740,1.306,0.963,0.428,0.743,0.704,�k,5.9,��
2019/08/04,09:00,0.754,1.083,0.741,1.307,0.963,0.427,0.743,0.704,�k�k��,5.0,��
2019/08/04,09:10,0.754,1.084,0.740,1.309,0.961,0.428,0.747,0.705,�k,5.5,��
2019/08/04,09:20,0.755,1.087,0.740,1.305,0.964,0.427,0.746,0.705,�k�k��,4.8,��
2019/08/04,09:30,0.756,1.087,0.740,1.308,0.962,0.428,0.747,0.704,�k�k��,4.9,��
2019/08/04,09:40,0.756,1.084,0.737,1.308,0.963,0.428,0.746,0.704,�k�k��,4.7,��
2019/08/04,09:50,0.756,1.087,0.740,1.308,0.964,0.428,0.745,0.704,�k�k��,3.9,��
2019/08/04,10:00,0.756,1.085,0.740,1.308,0.963,0.428,0.744,0.703,�k�k��,3.9,��
2019/08/04,10:10,0.755,1.087,0.740,1.309,0.966,0.428,0.744,0.703,�k�k��,3.8,��
2019/08/04,10:20,0.757,1.086,0.740,1.309,0.963,0.428,0.744,0.701,�k�k��,3.2,��
2019/08/04,10:30,0.755,1.085,0.740,1.309,0.963,0.428,0.742,0.702,�k��,3.4,��
2019/08/04,10:40,0.757,1.085,0.740,1.309,0.965,0.429,0.743,0.702,�k��,2.9,��
2019/08/04,10:50,0.758,1.087,0.740,1.308,0.964,0.428,0.744,0.702,�k�k��,3.1,��
2019/08/04,11:00,0.756,1.087,0.741,1.309,0.963,0.427,0.742,0.702,�k��,2.5,��
2019/08/04,11:10,0.757,1.087,0.741,1.310,0.964,0.428,0.742,0.700,�k��,2.3,��
2019/08/04,11:20,0.759,1.088,0.741,1.309,0.961,0.428,0.742,0.702,�k��,2.6,��
2019/08/04,11:30,0.758,1.088,0.741,1.308,0.963,0.428,0.742,0.701,�k�k��,2.3,��
2019/08/04,11:40,0.758,1.089,0.740,1.309,0.965,0.428,0.744,0.702,�k��,2.0,��
2019/08/04,11:50,0.759,1.091,0.741,1.308,0.964,0.428,0.743,0.701,�k�k��,2.3,��
2019/08/04,12:00,0.758,1.089,0.742,1.309,0.965,0.427,0.743,0.703,�k,2.9,��
2019/08/04,12:10,0.760,1.090,0.744,1.307,0.963,0.428,0.744,0.702,�k,2.6,��
2019/08/04,12:20,0.758,1.088,0.744,1.310,0.964,0.428,0.744,0.702,�k,2.6,��
2019/08/04,12:30,0.760,1.087,0.743,1.308,0.967,0.429,0.745,0.701,�k,2.9,��
2019/08/04,12:40,0.761,1.088,0.743,1.311,0.966,0.431,0.746,0.702,�k�k��,2.9,��
2019/08/04,12:50,0.761,1.088,0.743,1.308,0.966,0.429,0.747,0.702,�k�k��,2.8,��
2019/08/04,13:00,0.762,1.091,0.744,1.308,0.965,0.429,0.747,0.704,�k,2.2,��
2019/08/04,13:10,0.759,1.091,0.742,1.308,0.966,0.430,0.745,0.704,�k,2.2,��
2019/08/04,13:20,0.760,1.088,0.743,1.309,0.967,0.430,0.746,0.704,�k�k��,3.1,��
2019/08/04,13:30,0.761,1.090,0.744,1.310,0.966,0.430,0.744,0.705,�k�k��,3.1,��
2019/08/04,13:40,0.762,1.087,0.744,1.307,0.965,0.431,0.745,0.704,�k�k��,2.9,��
2019/08/04,13:50,0.760,1.093,0.743,1.310,0.968,0.430,0.743,0.703,�k�k��,3.1,��
2019/08/04,14:00,0.761,1.089,0.741,1.312,0.969,0.431,0.746,0.703,�k�k��,2.9,��
2019/08/04,14:10,0.759,1.091,0.743,1.310,0.967,0.431,0.746,0.704,�k�k��,2.0,��
2019/08/04,14:20,0.761,1.092,0.742,1.311,0.968,0.431,0.746,0.702,���k��,2.2,��
2019/08/04,14:30,0.761,1.091,0.744,1.310,0.967,0.429,0.745,0.702,��,2.0,��
2019/08/04,14:40,0.759,1.090,0.742,1.312,0.968,0.430,0.745,0.703,���k��,1.4,��
2019/08/04,14:50,0.758,1.089,0.744,1.310,0.969,0.431,0.744,0.702,��,1.5,��
2019/08/04,15:00,0.758,1.091,0.744,1.309,0.964,0.430,0.744,0.703,���쓌,1.5,��
2019/08/04,15:10,0.759,1.091,0.744,1.310,0.966,0.428,0.743,0.703,���쓌,1.2,��
2019/08/04,15:20,0.761,1.088,0.743,1.311,0.967,0.429,0.743,0.705,��,0.6,��
2019/08/04,15:30,0.759,1.090,0.742,1.309,0.966,0.429,0.744,0.704,���쓌,0.6,��
2019/08/04,15:40,0.758,1.090,0.741,1.308,0.968,0.429,0.746,0.704,�쓌,1.2,��
2019/08/04,15:50,0.760,1.088,0.745,1.310,0.967,0.430,0.745,0.705,�쓌,1.2,��
2019/08/04,16:00,0.759,1.089,0.744,1.312,0.967,0.429,0.745,0.703,��쓌,1.7,��
2019/08/04,16:10,0.759,1.089,0.744,1.308,0.968,0.429,0.746,0.705,��쓌,1.9,��
2019/08/04,16:20,0.758,1.089,0.742,1.312,0.968,0.429,0.746,0.702,��쓌,2.9,��
2019/08/04,16:30,0.759,1.091,0.744,1.311,0.966,0.431,0.745,0.704,�쓌,2.3,��
2019/08/04,16:40,0.759,1.089,0.743,1.309,0.968,0.430,0.745,0.704,��쓌,3.2,��
2019/08/04,16:50,0.758,1.088,0.741,1.312,0.967,0.431,0.745,0.704,��,2.6,��
2019/08/04,17:00,0.760,1.090,0.744,1.311,0.967,0.432,0.745,0.705,��쓌,2.8,��
2019/08/04,17:10,0.759,1.089,0.743,1.308,0.967,0.432,0.744,0.703,��쓌,3.4,��
2019/08/04,17:20,0.759,1.088,0.743,1.311,0.967,0.430,0.745,0.704,��,4.1,��
2019/08/04,17:30,0.759,1.091,0.743,1.311,0.964,0.432,0.744,0.705,��쓌,4.9,��
2019/08/04,17:40,0.758,1.089,0.744,1.311,0.966,0.430,0.746,0.705,��,5.9,��
2019/08/04,17:50,0.758,1.090,0.742,1.309,0.967,0.431,0.745,0.705,��쓌,5.4,��
2019/08/04,18:00,0.759,1.090,0.744,1.312,0.967,0.430,0.743,0.703,��,5.6,��
2019/08/04,18:10,0.760,1.089,0.742,1.312,0.968,0.431,0.746,0.705,��쓌,5.4,��
2019/08/04,18:20,0.760,1.090,0.743,1.310,0.967,0.431,0.745,0.704,��쓌,5.0,��
2019/08/04,18:30,0.758,1.090,0.743,1.313,0.966,0.431,0.745,0.706,��,4.8,��
2019/08/04,18:40,0.758,1.089,0.743,1.312,0.966,0.430,0.745,0.703,��,4.4,��
2019/08/04,18:50,0.759,1.091,0.741,1.311,0.967,0.430,0.746,0.704,��쓌,5.4,��
2019/08/04,19:00,0.759,1.091,0.742,1.310,0.965,0.430,0.747,0.706,��쓌,5.2,��
2019/08/04,19:10,0.759,1.089,0.744,1.311,0.966,0.430,0.744,0.704,��,4.1,��
2019/08/04,19:20,0.758,1.091,0.742,1.309,0.969,0.430,0.746,0.704,��,4.0,��
2019/08/04,19:30,0.760,1.088,0.742,1.312,0.967,0.431,0.746,0.704,��,4.2,��
2019/08/04,19:40,0.759,1.087,0.743,1.312,0.967,0.431,0.745,0.704,��,3.9,��
2019/08/04,19:50,0.759,1.090,0.742,1.313,0.967,0.430,0.745,0.703,��,4.0,��
2019/08/04,20:00,0.756,1.090,0.744,1.310,0.967,0.430,0.746,0.705,��,4.1,��
2019/08/04,20:10,0.757,1.089,0.742,1.310,0.966,0.430,0.745,0.704,��,4.2,��
2019/08/04,20:20,0.757,1.088,0.743,1.312,0.967,0.431,0.746,0.704,��,4.7,��
2019/08/04,20:30,0.757,1.087,0.742,1.311,0.967,0.430,0.746,0.704,��,3.8,��
2019/08/04,20:40,0.755,1.090,0.741,1.310,0.965,0.430,0.745,0.703,��,3.3,��
2019/08/04,20:50,0.757,1.088,0.741,1.311,0.966,0.431,0.746,0.703,��,3.2,��
2019/08/04,21:00,0.757,1.089,0.744,1.310,0.964,0.431,0.746,0.704,��쐼,2.6,��
2019/08/04,21:10,0.756,1.087,0.742,1.311,0.964,0.429,0.746,0.704,��쐼,2.0,��
2019/08/04,21:20,0.756,1.089,0.741,1.312,0.965,0.430,0.745,0.704,��쐼,2.2,��
2019/08/04,21:30,0.757,1.090,0.743,1.311,0.966,0.430,0.745,0.705,��,2.6,��
2019/08/04,21:40,0.759,1.091,0.742,1.311,0.967,0.431,0.745,0.702,��,3.2,��
2019/08/04,21:50,0.758,1.088,0.743,1.314,0.968,0.431,0.745,0.704,��쐼,3.6,��
2019/08/04,22:00,0.756,1.089,0.743,1.312,0.966,0.432,0.744,0.706,��,3.2,��
2019/08/04,22:10,0.758,1.089,0.742,1.312,0.968,0.432,0.746,0.704,��,3.3,��
2019/08/04,22:20,0.757,1.090,0.743,1.311,0.966,0.432,0.746,0.704,��,3.5,��
2019/08/04,22:30,0.757,1.088,0.743,1.311,0.965,0.430,0.744,0.704,��,3.4,��
2019/08/04,22:40,0.757,1.090,0.742,1.311,0.965,0.431,0.745,0.705,��,4.1,��
2019/08/04,22:50,0.759,1.091,0.744,1.313,0.965,0.432,0.744,0.703,��,4.2,��
2019/08/04,23:00,0.757,1.091,0.745,1.312,0.964,0.431,0.744,0.704,��,5.5,��
2019/08/04,23:10,0.756,1.089,0.743,1.311,0.967,0.432,0.744,0.704,��,5.0,��
2019/08/04,23:20,0.759,1.089,0.745,1.312,0.965,0.431,0.746,0.704,��,5.2,��
2019/08/04,23:30,0.760,1.090,0.745,1.313,0.967,0.430,0.745,0.705,��쐼,4.9,��
2019/08/04,23:40,0.760,1.090,0.743,1.314,0.966,0.432,0.745,0.705,��,4.6,��
2019/08/04,23:50,0.760,1.089,0.741,1.314,0.965,0.432,0.745,0.703,��,5.7,��
